Location: Jarosław
(50.0191°N, 22.6835°E)
Time: 11:05:50
(UTC+01:00)

ISS - Pass Details

Date: 25 January 2019
Orbit: 403 x 411 km, 51.6° (Epoch: 18 February)

Event Time Altitude Azimuth Distance (km) Brightness Sun altitude
Rises 18:29:01 0° 241° (WSW) 2,330 1.1 -21.9°
Reaches altitude 10° 18:31:06 10° 238° (WSW) 1,473 -0.2 -22.2°
Enters shadow 18:33:25 40° 220° (SW) 617 -2.7 -22.6°
